Location: Moscow
(55.7500°N, 37.5830°E)
Time: 20:58:31
(UTC+03:00)

Altair - All Passes

Search period start: 06 December 2021 00:00
Search period end: 16 December 2021 00:00
Orbit: 1502 x 1682 km, 47.2° (Epoch: 05 December)

Date Brightness Start Highest point End Pass type
(mag) Time Alt. Az. Time Alt. Az. Time Alt. Az.
06 Dec - 13:37:24 10° SSE 13:41:25 13° SE 13:45:23 10° ESE daylight
06 Dec - 15:35:35 10° SSW 15:43:48 34° SSE 15:51:48 10° E daylight
06 Dec - 17:38:11 10° WSW 17:47:08 50° S 17:55:52 10° ESE visible
06 Dec - 19:42:02 10° W 19:50:41 45° SSW 19:59:12 10° SE visible
06 Dec - 21:46:42 10° W 21:53:36 24° SW 22:00:27 10° S visible
07 Dec - 13:13:14 10° SSE 13:16:27 12° SE 13:19:38 10° ESE daylight
07 Dec - 15:10:38 10° SSW 15:18:45 33° SSE 15:26:38 10° E daylight
07 Dec - 17:13:04 10° WSW 17:22:02 50° S 17:30:46 10° E visible
07 Dec - 19:16:53 10° W 19:25:37 46° SSW 19:34:10 10° SE visible
07 Dec - 21:21:28 10° W 21:28:35 26° SW 21:35:40 10° SSE visible
08 Dec - 12:49:27 10° SE 12:51:29 11° SE 12:53:31 10° ESE daylight
08 Dec - 14:45:42 10° SSW 14:53:42 31° SSE 15:01:28 10° E daylight
08 Dec - 16:47:58 10° WSW 16:56:56 49° S 17:05:40 10° E visible
08 Dec - 18:51:44 10° W 19:00:32 47° SSW 19:09:08 10° SE visible
08 Dec - 20:56:14 10° W 21:03:34 28° SW 21:10:51 10° SSE visible
09 Dec - 14:20:47 10° SSW 14:28:39 30° SE 14:36:18 10° E daylight
09 Dec - 16:22:52 10° WSW 16:31:51 48° SSE 16:40:34 10° E visible
09 Dec - 18:26:36 10° W 18:35:27 48° SSW 18:44:05 10° ESE visible
09 Dec - 20:31:01 10° W 20:38:33 29° SW 20:46:00 10° SSE visible
10 Dec - 13:55:54 10° SSW 14:03:36 28° SE 14:11:07 10° E daylight
10 Dec - 15:57:46 10° SW 16:06:45 47° SSE 16:15:27 10° E daylight
10 Dec - 18:01:27 10° W 18:10:21 49° S 18:19:02 10° ESE visible
10 Dec - 20:05:48 10° W 20:13:32 31° SW 20:21:08 10° SSE visible
10 Dec - 22:14:29 10° WSW 22:15:36 10° SW 22:16:44 10° SW visible
11 Dec - 13:31:01 10° SSW 13:38:34 27° SE 13:45:54 10° E daylight
11 Dec - 15:32:41 10° SW 15:41:40 47° SSE 15:50:21 10° E daylight
11 Dec - 17:36:18 10° W 17:45:15 50° S 17:53:59 10° ESE visible
11 Dec - 19:40:36 10° W 19:48:30 32° SSW 19:56:16 10° SSE visible
11 Dec - 21:47:54 10° WSW 21:50:39 12° SW 21:53:24 10° SW visible
12 Dec - 13:06:11 10° S 13:13:32 25° SE 13:20:42 10° E daylight
12 Dec - 15:07:36 10° SW 15:16:34 45° SSE 15:25:14 10° E daylight
12 Dec - 17:11:09 10° WSW 17:20:10 51° S 17:28:55 10° ESE visible
12 Dec - 19:15:24 10° W 19:23:27 34° SSW 19:31:22 10° SSE visible
12 Dec - 21:22:02 10° WSW 21:25:43 13° SW 21:29:22 10° SSW visible
13 Dec - 12:41:22 10° S 12:48:31 24° SE 12:55:28 10° E daylight
13 Dec - 14:42:32 10° SW 14:51:28 44° SSE 15:00:07 10° E daylight
13 Dec - 16:46:00 10° WSW 16:55:04 51° S 17:03:51 10° ESE visible
13 Dec - 18:50:13 10° W 18:58:25 36° SSW 19:06:26 10° SSE visible
13 Dec - 20:56:22 10° W 21:00:45 14° SW 21:05:07 10° SSW visible
14 Dec - 12:16:36 10° S 12:23:29 22° SE 12:30:13 10° E daylight
14 Dec - 14:17:28 10° SW 14:26:23 43° SSE 14:35:00 10° E daylight
14 Dec - 16:20:51 10° WSW 16:29:58 51° S 16:38:47 10° ESE daylight
14 Dec - 18:25:01 10° W 18:33:21 37° SSW 18:41:30 10° SE visible
14 Dec - 20:30:50 10° W 20:35:47 16° SW 20:40:42 10° SSW visible
15 Dec - 11:51:51 10° S 11:58:29 21° SE 12:04:56 10° E daylight
15 Dec - 13:52:24 10° SW 14:01:17 42° SSE 14:09:52 10° E daylight
15 Dec - 15:55:42 10° WSW 16:04:51 52° S 16:13:42 10° ESE daylight
15 Dec - 17:59:50 10° W 18:08:18 39° SSW 18:16:33 10° SE visible
15 Dec - 20:05:23 10° W 20:10:49 17° SW 20:16:13 10° SSW visible
